[[{"header":{"parameterUnit":"m.s-1","parameterCategory":1,"la1":30.2991,"la2":30.254,"lo1":-89.0895,"lo2":-89.0444,"dy":0.0017,"dx":0.0017,"nx":28,"ny":28,"refTime":"2024-04-27T09:00:00:Z","depth":0,"parameterNumber":2,"parameterNumberName":"U-component_of_WINDS"},"data":[0,0,0,0,0,0,0,0,0,0,0,0,0,0,0,0,0,0,0,0,0,0,0,0,0,0,0,0,0,0,0,0,0,0,0,0,0,0,0,0,0,0,0,0,0,0,0,0,0,0,0,0,0,0,0,0,0,0,-6.5732,-6.5733,0,-6.5839,-6.5841,-6.5842,-6.5846,-6.5845,-6.5844,-6.5843,-6.5957,-6.5961,-6.5965,0,0,0,0,0,0,0,0,0,0,0,0,0,-6.5537,-6.554,-6.5732,-6.5734,-6.5735,-6.5839,-6.5841,-6.5842,-6.5847,-6.5845,-6.5843,-6.5842,-6.5956,-6.5961,-6.5966,0,0,0,0,0,0,0,0,0,0,0,0,0,-6.5631,-6.5541,-6.5732,-6.5749,-6.5752,-6.5839,-6.5841,-6.5843,-6.5847,-6.5845,-6.5843,-6.5841,-6.5954,-6.596,-6.5966,-6.6044,0,0,-6.5986,-6.5989,0,0,0,0,0,0,0,0,-6.5625,-6.5638,-6.5746,-6.5748,-6.5752,-6.5827,-6.5814,-6.591,-6.5847,-6.5811,-6.5842,-6.584,-6.5916,-6.5925,-6.595,-6.605,-6.6055,-6.5986,-6.599,-6.5993,-6.5995,0,0,0,0,0,0,0,-6.5619,-6.5633,-6.5775,-6.5747,-6.5751,-6.5754,-6.5765,-6.5832,-6.5873,-6.5814,-6.5815,-6.5827,-6.5917,-6.5943,-6.5952,-6.6056,-6.5986,-6.5992,-6.5996,-6.5998,-6.6227,-6.623,0,0,0,0,0,0,-6.5608,-6.5628,-6.5771,-6.5778,-6.5682,-6.5759,-6.5771,-6.5805,-6.5872,-6.5881,-6.5829,-6.5827,-6.5934,-6.5945,-6.5956,-6.6052,-6.5993,-6.5999,-6.6003,-6.6225,-6.6228,-6.623,0,0,0,0,0,0,-6.5604,-6.5621,-6.5767,-6.5703,-6.5722,-6.5764,-6.5802,-6.5808,-6.5834,-6.5883,-6.5891,-6.5847,-6.5932,-6.5947,-6.6022,-6.6056,-6.6002,-6.6008,-6.6222,-6.6226,-6.6229,-6.6243,0,0,0,0,0,0,-6.5598,-6.5619,-6.5648,-6.5704,-6.5725,-6.5829,-6.5804,-6.5812,-6.5845,-6.5844,-6.5903,-6.5911,-6.5932,-6.6013,-6.6029,-6.6063,-6.6013,-6.622,-6.6224,-6.6228,-6.6239,-6.6246,-6.6252,0,0,0,0,0,-6.5591,-6.5648,-6.5649,-6.5666,-6.5761,-6.5831,-6.5844,-6.5865,-6.5848,-6.5877,-6.5909,-6.5909,-6.605,-6.602,-6.6038,-6.6075,-6.6218,-6.6223,-6.6228,-6.6236,-6.6245,-6.6252,0,0,0,0,0,0,-6.5596,-6.5656,-6.5657,-6.5734,-6.5777,-6.5831,-6.5869,-6.5873,-6.5923,-6.592,-6.5947,-6.596,-6.6034,-6.6063,-6.6029,-6.6155,-6.6132,-6.6141,-6.6133,-6.6141,-6.6147,-6.6137,-6.6018,0,0,0,0,0,-6.5606,-6.5656,-6.5706,-6.5769,-6.579,-6.5826,-6.5857,-6.5871,-6.5917,-6.5936,-6.5973,-6.602,-6.6075,-6.611,-6.6163,-6.6245,-6.6258,-6.628,-6.6286,-6.6291,-6.6297,-6.6343,-6.6353,-6.6247,-6.6247,-6.6247,0,0,-6.5627,-6.5666,-6.5695,-6.5771,-6.5806,-6.5858,-6.5842,-6.5898,-6.5937,-6.5945,-6.6016,-6.6046,-6.6101,-6.6179,-6.6216,-6.6205,-6.6331,-6.6298,-6.6301,-6.6305,-6.6349,-6.6359,-6.6368,-6.6251,-6.625,-6.6249,0,0,-6.569,-6.5725,-6.5781,-6.5816,-6.587,-6.5894,-6.5907,-6.5962,-6.5981,-6.6054,-6.6061,-6.611,-6.6204,-6.6242,-6.6274,-6.6356,-6.6358,-6.6373,-6.6404,-6.6449,-6.6457,-6.6465,-6.6493,-6.6502,-6.638,-6.638,-6.638,0,-6.5709,-6.5787,-6.5809,-6.5865,-6.5898,-6.5908,-6.5965,-6.5999,-6.6068,-6.6092,-6.6079,-6.6198,-6.6235,-6.6323,-6.6343,-6.6369,-6.6386,-6.6364,-6.6454,-6.6462,-6.6469,-6.6496,-6.6507,-6.6382,-6.6382,-6.6381,-6.6381,0,-6.5807,-6.5861,-6.59,-6.5964,-6.6003,-6.6059,-6.6092,-6.6129,-6.614,-6.6166,-6.6241,-6.6287,-6.6349,-6.6372,-6.6384,-6.6462,-6.6454,-6.6448,-6.6424,-6.648,-6.6506,-6.6516,-6.6383,-6.6383,-6.6383,-6.6382,0,0,-6.5873,-6.5951,-6.5964,-6.5994,-6.6055,-6.6098,-6.6156,-6.6216,-6.6247,-6.6296,-6.6345,-6.6426,-6.6421,-6.6457,-6.6474,-6.6513,-6.6574,-6.6503,-6.6504,-6.6512,-6.6663,-6.6665,-6.6676,-6.6578,-6.658,-6.6582,-6.6658,0,-6.5942,-6.6043,-6.6066,-6.6153,-6.6204,-6.6215,-6.6266,-6.631,-6.6337,-6.6386,-6.6417,-6.6473,-6.6462,-6.6484,-6.6524,-6.6558,-6.6604,-6.6554,-6.6624,-6.6627,-6.6607,-6.669,-6.6692,-6.6761,-6.6668,-6.667,-6.6671,0,-6.6035,-6.6083,-6.6175,-6.623,-6.6252,-6.6297,-6.6354,-6.64,-6.6452,-6.6469,-6.6511,-6.6524,-6.6587,-6.6564,-6.6652,-6.6617,-6.6648,-6.667,-6.6674,-6.6678,-6.665,-6.6695,-6.6784,-6.6794,-6.6688,-6.6686,-6.6685,0,-6.6071,-6.6161,-6.6227,-6.6252,-6.6318,-6.6349,-6.6379,-6.6428,-6.6463,-6.6515,-6.6538,-6.6598,-6.663,-6.6677,-6.6707,-6.6687,-6.6793,-6.6771,-6.6809,-6.6808,-6.6827,-6.6825,-6.692,-6.6853,-6.6852,-6.6852,-6.6852,0,-6.6144,-6.6199,-6.6244,-6.6284,-6.6347,-6.6375,-6.6438,-6.6468,-6.6512,-6.656,-6.6576,-6.6621,-6.6659,-6.6711,-6.6736,-6.6805,-6.682,-6.6836,-6.6842,-6.6833,-6.6831,-6.6851,-6.6846,-6.6855,-6.6854,-6.6854,-6.6853,0,-6.6194,-6.6226,-6.6298,-6.6356,-6.6371,-6.6415,-6.6465,-6.6506,-6.6535,-6.6595,-6.6611,-6.6657,-6.6718,-6.6754,-6.6832,-6.6849,-6.6925,-6.693,-6.6906,-6.6908,-6.6943,-6.6938,-6.7052,-6.7068,-6.6992,-6.6993,-6.6993,0,-6.6236,-6.6279,-6.634,-6.6372,-6.6402,-6.6454,-6.649,-6.6521,-6.6558,-6.662,-6.6654,-6.6716,-6.6767,-6.6865,-6.6906,-6.6967,-6.6972,-6.7008,-6.6981,-6.6971,-6.697,-6.6966,-6.697,-6.7011,-6.7012,-6.7012,-6.7013,0,-6.6308,-6.6322,-6.6372,-6.6427,-6.6469,-6.6515,-6.6561,-6.6587,-6.6626,-6.6668,-6.6729,-6.6769,-6.6848,-6.691,-6.6974,-6.7007,-6.7017,-6.7022,-6.7033,-6.7023,-6.7007,-6.7014,-6.6916,-6.7018,-6.7017,-6.7017,-6.7017,-6.7017,-6.6354,-6.6392,-6.6441,-6.6497,-6.6534,-6.6577,-6.6618,-6.6652,-6.6703,-6.6768,-6.6785,-6.685,-6.6903,-6.699,-6.7025,-6.7078,-6.7072,-6.7089,-6.7093,-6.7096,-6.7096,-6.7001,-6.709,-6.709,-6.709,-6.709,-6.709,0,-6.6425,-6.6458,-6.6508,-6.6571,-6.6615,-6.662,-6.6671,-6.6708,-6.6764,-6.6812,-6.6862,-6.6934,-6.6994,-6.7041,-6.7104,-6.7138,-6.7144,-6.7153,-6.7149,-6.7157,-6.7098,-6.7081,-6.7147,-6.7147,-6.7147,-6.7147,-6.7147,-6.7147,-6.6467,-6.6531,-6.6552,-6.6636,-6.6669,-6.6731,-6.676,-6.68,-6.6838,-6.6917,-6.6966,-6.6996,-6.7045,-6.7111,-6.7168,-6.7181,-6.7202,-6.721,-6.7223,-6.7167,-6.7161,-6.7155,-6.7138,-6.7215,-6.7215,-6.7277,-6.7278,-6.7278]},{"header":{"parameterUnit":"m.s-1","parameterCategory":1,"la1":30.2991,"la2":30.254,"lo1":-89.0895,"lo2":-89.0444,"dy":0.0017,"dx":0.0017,"nx":28,"ny":28,"refTime":"2024-04-27T09:00:00:Z","depth":0,"parameterNumber":3,"parameterNumberName":"V-component_of_WINDS"},"data":[0,0,0,0,0,0,0,0,0,0,0,0,0,0,0,0,0,0,0,0,0,0,0,0,0,0,0,0,0,0,0,0,0,0,0,0,0,0,0,0,0,0,0,0,0,0,0,0,0,0,0,0,0,0,0,0,0,0,5.2978,5.2979,0,5.3026,5.3027,5.3027,5.3038,5.3038,5.3037,5.3037,5.3083,5.3085,5.3086,0,0,0,0,0,0,0,0,0,0,0,0,0,5.2895,5.2896,5.2978,5.2979,5.2979,5.3026,5.3027,5.3028,5.3038,5.3038,5.3037,5.3037,5.3083,5.3084,5.3086,0,0,0,0,0,0,0,0,0,0,0,0,0,5.2935,5.2896,5.2978,5.299,5.2992,5.3026,5.3027,5.3028,5.3038,5.3038,5.3037,5.3037,5.3082,5.3084,5.3087,5.3111,0,0,5.3094,5.3095,0,0,0,0,0,0,0,0,5.2933,5.2939,5.2988,5.299,5.2991,5.3026,5.3014,5.3056,5.3038,5.3021,5.3037,5.3037,5.3064,5.3068,5.3078,5.3113,5.3115,5.3094,5.3095,5.3096,5.3097,0,0,0,0,0,0,0,5.293,5.2936,5.2997,5.2989,5.2991,5.2993,5.2999,5.3022,5.3044,5.3022,5.3023,5.3029,5.3065,5.3076,5.3079,5.3116,5.3094,5.3096,5.3097,5.3098,5.3177,5.3178,0,0,0,0,0,0,5.2926,5.2934,5.2996,5.2999,5.2961,5.2995,5.3001,5.3015,5.3044,5.3048,5.3029,5.3029,5.3072,5.3076,5.3081,5.3114,5.3096,5.3098,5.31,5.3176,5.3177,5.3178,0,0,0,0,0,0,5.2924,5.2931,5.2994,5.2967,5.2975,5.2997,5.3013,5.3016,5.3027,5.305,5.3054,5.3036,5.3072,5.3078,5.3105,5.3115,5.3099,5.3102,5.3176,5.3177,5.3178,5.3178,0,0,0,0,0,0,5.2921,5.293,5.2939,5.2967,5.2976,5.3016,5.3014,5.3018,5.3032,5.3032,5.3057,5.3061,5.3072,5.3101,5.3107,5.3118,5.3103,5.3175,5.3176,5.3177,5.3177,5.3179,5.3181,0,0,0,0,0,5.2918,5.2936,5.294,5.2947,5.2988,5.3017,5.3022,5.3036,5.3032,5.3042,5.3057,5.306,5.3113,5.3104,5.311,5.3123,5.3174,5.3176,5.3177,5.3177,5.3179,5.3181,0,0,0,0,0,0,5.2907,5.294,5.2944,5.2972,5.2992,5.3019,5.3031,5.3037,5.3057,5.3057,5.3072,5.3077,5.3104,5.3116,5.3104,5.315,5.3144,5.3147,5.3141,5.3143,5.3145,5.3142,5.3105,0,0,0,0,0,5.2908,5.2929,5.2956,5.2978,5.2988,5.3008,5.3021,5.303,5.3051,5.3059,5.3076,5.3095,5.3117,5.3131,5.3151,5.3179,5.3186,5.3192,5.3193,5.3195,5.3197,5.3216,5.3219,5.3183,5.3183,5.3183,0,0,5.291,5.293,5.2942,5.2976,5.2993,5.3015,5.3015,5.3037,5.3054,5.3062,5.3089,5.3103,5.3126,5.3154,5.3168,5.3165,5.3209,5.3197,5.3197,5.3199,5.3218,5.3221,5.3224,5.3184,5.3184,5.3184,0,0,5.2924,5.2941,5.2963,5.2981,5.3007,5.3021,5.3026,5.3053,5.3063,5.3092,5.3099,5.3119,5.3155,5.3172,5.3186,5.3212,5.3216,5.3218,5.3227,5.3245,5.3248,5.3251,5.3262,5.3266,5.322,5.322,5.322,0,5.2922,5.2956,5.2972,5.2996,5.3012,5.3023,5.3046,5.3061,5.3092,5.3103,5.31,5.3149,5.3165,5.3199,5.3206,5.3216,5.3223,5.3215,5.3246,5.3249,5.3252,5.3263,5.3267,5.3221,5.3221,5.3221,5.322,0,5.2954,5.2978,5.2992,5.3025,5.3042,5.3065,5.3085,5.3101,5.3109,5.3124,5.3154,5.3174,5.3201,5.321,5.3216,5.3246,5.3244,5.3244,5.3238,5.3255,5.3266,5.327,5.3221,5.3221,5.3221,5.3221,0,0,5.296,5.3005,5.301,5.3027,5.3059,5.3077,5.3102,5.313,5.3144,5.3166,5.3187,5.322,5.3221,5.3236,5.3246,5.3262,5.3285,5.326,5.3261,5.3266,5.3321,5.3322,5.3326,5.3288,5.3289,5.3289,5.332,0,5.298,5.3025,5.3042,5.3079,5.3102,5.3115,5.3137,5.3159,5.3174,5.3196,5.3212,5.3236,5.3235,5.3245,5.3261,5.3278,5.3296,5.3276,5.3309,5.331,5.3303,5.3331,5.3332,5.3359,5.3324,5.3324,5.3325,0,5.3008,5.3034,5.3073,5.3106,5.3117,5.3136,5.3165,5.3186,5.3212,5.3222,5.3242,5.3252,5.3279,5.3272,5.331,5.3296,5.3311,5.3322,5.3323,5.3327,5.3319,5.3337,5.3368,5.3373,5.3331,5.3331,5.333,0,5.3011,5.3055,5.3086,5.3099,5.3138,5.3151,5.3168,5.3194,5.3211,5.3237,5.3248,5.3276,5.3291,5.3312,5.333,5.3323,5.3367,5.3361,5.3377,5.3377,5.3386,5.3385,5.342,5.3393,5.3393,5.3393,5.3393,0,5.3031,5.3055,5.3088,5.3107,5.3135,5.3156,5.3183,5.32,5.3224,5.3247,5.3259,5.328,5.3302,5.3326,5.334,5.3371,5.3377,5.3386,5.339,5.3386,5.3385,5.3396,5.3395,5.3394,5.3394,5.3394,5.3394,0,5.3038,5.3061,5.3096,5.3131,5.3141,5.3161,5.3191,5.321,5.3227,5.3256,5.3264,5.3291,5.332,5.334,5.3377,5.3386,5.3421,5.3423,5.3412,5.3414,5.343,5.3429,5.3474,5.3482,5.3449,5.3449,5.3449,0,5.305,5.307,5.3109,5.3126,5.3144,5.317,5.3189,5.3211,5.323,5.3264,5.328,5.3311,5.3337,5.3383,5.3406,5.3435,5.3439,5.3453,5.3443,5.344,5.3441,5.3441,5.3444,5.3454,5.3455,5.3455,5.3455,0,5.3069,5.3081,5.3108,5.3141,5.3164,5.319,5.3216,5.3229,5.3255,5.3276,5.3308,5.3329,5.3369,5.34,5.3432,5.3449,5.3457,5.3458,5.3464,5.346,5.3454,5.346,5.3418,5.3457,5.3457,5.3457,5.3456,5.3456,5.308,5.31,5.3132,5.3163,5.3186,5.3211,5.3232,5.3254,5.3281,5.3317,5.3328,5.3361,5.339,5.3435,5.3453,5.348,5.3478,5.3486,5.3488,5.349,5.3491,5.345,5.3485,5.3485,5.3485,5.3485,5.3485,0,5.3101,5.3124,5.3152,5.3191,5.3216,5.3224,5.3254,5.3274,5.3304,5.3332,5.3359,5.3397,5.3428,5.3455,5.3487,5.3504,5.3509,5.3512,5.3511,5.3516,5.3489,5.3482,5.3508,5.3508,5.3508,5.3508,5.3508,5.3508,5.3115,5.315,5.3166,5.3213,5.3235,5.327,5.3287,5.3311,5.3334,5.3376,5.3404,5.3422,5.3449,5.3485,5.3515,5.3522,5.3534,5.3537,5.3545,5.3519,5.3517,5.3515,5.3508,5.3539,5.3539,5.3569,5.3569,5.3569]}]]